Regional Weather Roundup
Issued by NWS

Home | Current Version | Previous Version | Graphics & Text | Print | Product List | Glossary On
Versions: 1 2 3 4 5 6 7 8 9 10 11 12 13 14 15 16 17 18 19 20 21 22 23 24 25 26 27 28 29 30 31 32 33 34 35 36 37 38 39 40 41 42 43 44 45 46 47 48 49 50
000
ASUS43 KMPX 221901
RWRMN
WEATHER ROUNDUP FOR MINNESOTA
NATIONAL WEATHER SERVICE TWIN CITIES/CHANHASSEN MN
200 PM CDT SUN OCT 22 2017


NOTE: "FAIR" INDICATES FEW OR NO CLOUDS BELOW 12,000 FEET WITH NO
SIGNIFICANT WEATHER AND/OR OBSTRUCTIONS TO VISIBILITY. N/A MEANS
CURRENT SKY AND/OR WEATHER CONDITIONS ARE NOT AVAILABLE.

MNZ060>063-068>070-222000-
   Twin Cities Metro

CITY           SKY/WX    TMP DP  RH WIND       PRES   REMARKS
TWIN CITIES    MOSUNNY   62  36  37 W13       29.97F
ST PAUL        SUNNY     60  39  45 SW10      29.98F
CRYSTAL        SUNNY     62  32  32 W16       29.95F
BLAINE         MOSUNNY   63  36  36 W13G18    29.96F
LAKEVILLE      SUNNY     61  36  39 W15       29.98S
EDEN PRAIRIE   SUNNY     62  34  35 W13G23    29.96F
SOUTH ST PAUL  SUNNY     61  36  38 W13       29.97F
LAKE ELMO      FAIR      61  34  36 W17G24    29.98F
$$
MNZ001>005-007-008-013>017-022>024-027-028-222000-
   Northwest Minnesota

CITY           SKY/WX    TMP DP  RH WIND       PRES   REMARKS
BEMIDJI        SUNNY     58  30  35 SW17      29.82F
HALLOCK        SUNNY     63  27  25 SW22G28   29.70F
ROSEAU         SUNNY     57  36  44 SW14G24   29.72F
WARROAD        SUNNY     55  36  47 W14G28    29.73S
CROOKSTON      SUNNY     63  28  27 SW22G32   29.77F
FOSSTON        SUNNY     61  28  29 SW21G26   29.81F
DETROIT LAKES  SUNNY     59  32  36 SW15      29.86F
MOORHEAD       SUNNY     63  28  27 SW22      29.84F
PARK RAPIDS    SUNNY     60  31  33 W20G25    29.85F
MAHNOMEN       FAIR      59  32  36 SW16G25   29.82F
$$
MNZ006-009>011-018-025>026-222000-
   North Central Minnesota

CITY           SKY/WX    TMP DP  RH WIND       PRES   REMARKS
BAUDETTE       SUNNY     57  31  37 SW16G31   29.74F
FLAG ISLAND    SUNNY     54  30  40 W16G31    29.68S
INTL FALLS     SUNNY     58  33  39 SW12G24   29.76F
WASKISH        SUNNY     55  37  50 SW14      29.79F
BIG FORK       MOSUNNY   57  30  35 SW18      29.81F
LONGVILLE      SUNNY     61  30  31 SW9G16    29.86F
GRAND RAPIDS   SUNNY     57  32  38 SW13      29.87F
CRANE LAKE     SUNNY     55  32  41 W13G22    29.80F
ORR            SUNNY     57  25  28 W10G20    29.78F
COOK           SUNNY     57  32  38 SW13G21   29.82S
WALKER         FAIR      58  29  32 W15G23    29.84F
$$
MNZ012-019>021-037-222000-
   Northeast Minnesota

CITY           SKY/WX    TMP DP  RH WIND       PRES   REMARKS
DULUTH         SUNNY     57  35  43 W17       29.86F
ELY            SUNNY     55  34  44 W13       29.80F
HIBBING        SUNNY     56  30  37 W9G22     29.84F
EVELETH        SUNNY     58  16  19 W16G23    29.85F
DULUTH HARBOR  SUNNY     59  37  44 SW16G23   29.87F
TWO HARBORS    SUNNY     61  41  48 SW17      29.83F
G MARAIS ARPRT CLOUDY    46  36  66 SW6       29.82S
$$
MNZ029>031-032-039>041-046>048-054>057-064-222000-
   West Central Minnesota

CITY           SKY/WX    TMP DP  RH WIND       PRES   REMARKS
FERGUS FALLS   SUNNY     63  30  29 W21G28    29.87F
WHEATON        SUNNY     64  25  22 SW14G23   29.90F
MORRIS         SUNNY     63  32  31 SW16G25   29.90F
ALEXANDRIA     SUNNY     60  33  36 SW13      29.92F
ELBOW LAKE     FAIR      62  31  31 SW16G24   29.89F
WADENA         SUNNY     57  34  41 SW13G20   29.87F
GLENWOOD       SUNNY     61  34  36 SW14      29.93F
APPLETON       SUNNY     64  27  24 SW15      29.92F
BENSON         SUNNY     64  28  25 W13G23    29.94F
ORTONVILLE     SUNNY     64  28  25 NW12G23   29.91F
MADISON        SUNNY     66  32  28 SW16      29.93F
WILLMAR        FAIR      63  36  36 W14       29.96F
$$
MNZ033>034-036-042>043-049>051-058-059-222000-
   Central Minnesota

CITY           SKY/WX    TMP DP  RH WIND       PRES   REMARKS
ST CLOUD       SUNNY     61  35  37 W17G28    29.94F
SAUK CENTRE    FAIR      59  33  37 SW14      29.93F
PAYNESVILLE    SUNNY     61  33  35 W16       29.95F
AITKIN         SUNNY     57  30  35 SW12      29.87F
PINE RIVER     SUNNY     57  32  38 SW10G17   29.91F
BRAINERD       SUNNY     61  29  29 SW17G25   29.90F
STAPLES        SUNNY     59  28  31 SW13G20   29.90F
LONG PRAIRIE   FAIR      59  34  38 S8        29.93F
LITTLE FALLS   SUNNY     59  19  21 W16       29.92F
LITCHFIELD     SUNNY     63  36  36 W7G16     29.96F
BUFFALO        SUNNY     60  33  36 W10       29.97F
MAPLE LAKE     SUNNY     62  37  39 SW13G18   29.97S
HUTCHINSON     SUNNY     63  35  35 SW8G18    29.98F
$$
MNZ037-044-045-052-053-222000-
   East Central Minnesota

CITY           SKY/WX    TMP DP  RH WIND       PRES   REMARKS
PRINCETON      SUNNY     63  34  34 W12       29.94F
MORA           SUNNY     59  32  36 W14G23    29.94F
CAMBRIDGE      SUNNY     63  39  42 W13G18    29.94F
RUSH CITY      SUNNY     60  33  35 W14G20    29.94F
MOOSE LAKE     SUNNY     59  34  38 W10G18    29.88F
HINCKLEY       FAIR      61  32  33 W16       29.92F
CLOQUET        SUNNY     57  28  33 W15G21    29.87F
MCGREGOR       SUNNY     59  32  36 W9G18     29.89F
$$
MNZ071>073-080-081-089-090-097-098-222000-
   Southwest Minnesota

CITY           SKY/WX    TMP DP  RH WIND       PRES   REMARKS
MONTEVIDEO     SUNNY     66  28  24 W14       29.95F
GRANITE FALLS  SUNNY     65  32  29 SW14G22   29.98F
CANBY          SUNNY     64  31  29 SW13G20   29.95F
MARSHALL       SUNNY     63  31  30 SW15G25   29.96F
REDWOOD FALLS  SUNNY     64  28  25 W13G21    29.97F
OLIVIA         SUNNY     63  32  31 W13       29.96F
PIPESTONE      SUNNY     63  27  25 SW13G20   29.97F
WORTHINGTON    SUNNY     62  31  31 SW13G20   30.01F
JACKSON        SUNNY     61  30  31 W12       30.01F
TRACY          SUNNY     63  32  31 SW12G18   29.99F
SLAYTON        SUNNY     62  30  29 SW13G21   30.00F
$$
MNZ065>067-074>077-082>085-091>093-222000-
   South Central Minnesota

CITY           SKY/WX    TMP DP  RH WIND       PRES   REMARKS
MANKATO        SUNNY     62  32  32 W16       29.99F
NEW ULM        SUNNY     63  30  29 W9G17     29.98F
ST JAMES       SUNNY     64  30  27 W12G20    30.00F
FAIRMONT       SUNNY     62  29  28 W14       30.01F
GLENCOE        SUNNY     63  32  31 SW10G16   29.97F
FARIBAULT      SUNNY     63  37  39 W10G22    29.99F
OWATONNA       SUNNY     63  37  39 W17       30.00F
WASECA         SUNNY     63  36  36 W10G18    30.01F
$$
MNZ078>079-086>088-094>096-222000-
   Southeast Minnesota

CITY           SKY/WX    TMP DP  RH WIND       PRES   REMARKS
ROCHESTER      CLOUDY    58  39  49 W12       30.00F
RED WING       MOSUNNY   61  36  39 W6        29.96F
STANTON        SUNNY     62  35  36 W15       29.97F
DODGE CENTER   MOSUNNY   59  34  38 W12G18    29.99F
WINONA         CLOUDY    54  41  62 CALM      30.00F
AUSTIN         CLOUDY    59  34  38 NW12G18   30.00F
PRESTON        CLOUDY    55  38  54 NW12      30.01F
$$
ABBREVIATIONS USED IN REMARKS
   TC - TEMPERATURES IN CELSIUS
  WCI - WIND CHILL INDEX
   HX - HEAT INDEX
  VSB - VISIBILITY
$$



USA.gov is the U.S. government's official web portal to all federal, state and local government web resources and services.